This demonstration page uses our WeatherBlox Daily Observations layout. Learn more.

Left ArrowRight Arrow

Hourly Observations for June 25, 2017

Temp ( °F °C ) Dew Point ( °F °C ) Humidity (%) Winds ( mph kmh ) Pressure ( in mb ) Visibility ( mi km ) Precip ( " mm )
12:51 am 00:51 Clear 82 27.8 54 12.2 38 38 E 14 22 29.83 1010 10 16 N/A
1:51 am 01:51 Clear 82 27.8 54 12.2 38 38 E 16 26 29.82 1010 10 16 N/A
2:51 am 02:51 Clear 81 27.2 55 12.8 41 41 E 20 31 29.84 1011 10 16 N/A
3:51 am 03:51 Clear with Light Rain 79 26.1 57 13.9 47 47 E 21 33 29.86 1011 10 16 N/A
4:51 am 04:51 Partly Cloudy 79 26.1 55 12.8 44 44 E 13 20 29.88 1012 10 16 N/A
5:51 am 05:51 Sunny 78 25.6 55 12.8 45 45 E 13 20 29.90 1013 10 16 N/A
6:51 am 06:51 Sunny 80 26.7 55 12.8 42 42 E 13 20 29.93 1014 10 16 N/A
7:51 am 07:51 Sunny 84 28.9 54 12.2 36 36 E 10 17 29.93 1014 10 16 N/A
8:51 am 08:51 Sunny 85 29.4 52 11.1 32 32 SSE 9 15 29.94 1014 10 16 N/A
9:51 am 09:51 Sunny 88 31.1 52 11.1 29 29 ESE 8 13 29.93 1014 10 16 N/A
10:51 am 10:51 Sunny 90 32.2 52 11.1 27 27 E 7 11 29.92 1013 10 16 N/A
11:51 am 11:51 Sunny 92 33.3 51 10.6 25 25 S 6 9 29.90 1013 10 16 N/A
12:51 pm 12:51 Sunny 91 32.8 52 11.1 26 26 SSW 6 9 29.88 1012 10 16 N/A
1:51 pm 13:51 Sunny 99 37.2 51 10.6 20 20 E 7 11 29.83 1010 10 16 N/A
2:51 pm 14:51 Sunny 99 37.2 46 7.8 16 16 N N/A 29.79 1009 10 16 N/A
3:51 pm 15:51 Sunny 103 39.4 45 7.2 14 14 NNW 8 13 29.75 1008 10 16 N/A
4:51 pm 16:51 Sunny 103 39.4 42 5.6 12 12 WSW 6 9 29.72 1007 10 16 N/A
5:51 pm 17:51 Sunny 102 38.9 43 6.1 13 13 VRB 5 7 29.72 1006 10 16 N/A
6:51 pm 18:51 Sunny 100 37.8 43 6.1 14 14 SW 5 7 29.72 1007 10 16 N/A
7:37 pm 19:37 Clear 95 35 45 7.2 18 18 E 25 41 29.68 1005 10 16 N/A
7:51 pm 19:51 Clear 94 34.4 45 7.2 18 18 ENE 24 39 29.76 1008 10 16 N/A
8:10 pm 20:10 Clear with Thunderstorms 93 34 45 7 19 19 ENE 22 35 29.71 1006 10 16 N/A
8:26 pm 20:26 Mostly Cloudy with Thunderstorms 90 32 52 11 27 27 NW 15 24 29.80 1009 10 16 N/A
8:38 pm 20:38 Mostly Cloudy with Nearby Thunderstorms 73 23 63 17 69 69 W 21 33 29.91 1013 3 5 N/A
8:51 pm 20:51 Cloudy with Thunderstorms 76 24.4 65 18.3 69 69 SSW 13 20 29.94 1014 7 11 0.05 1.27
9:07 pm 21:07 Mostly Cloudy with Thunderstorms 76 24.4 63 17.2 64 64 SE 13 20 29.88 1012 10 16 N/A
9:15 pm 21:15 Mostly Cloudy with Nearby Thunderstorms 80 26.7 61 16.1 52 52 E 6 9 29.88 1012 10 16 N/A
9:23 pm 21:23 Mostly Cloudy 81 27.2 60 15.6 49 49 ESE 8 13 29.85 1011 10 16 N/A
9:51 pm 21:51 Mostly Clear 78 25.6 63 17.2 60 60 SW 8 13 29.91 1013 10 16 N/A
10:51 pm 22:51 Clear 76 24.4 61 16.1 60 60 ESE 5 7 29.93 1014 10 16 N/A
11:51 pm 23:51 Clear with Light Rain 74 23.3 60 15.6 62 62 ESE 10 17 29.92 1013 10 16 N/A

Powered by AerisWeather